sat.trackr.live / text

‹ back to catalog

STARLINK-35140

NORAD 65501 · 2025-198K

PAYLOAD ACTIVE UNKNOWN

§ Identity

Operator
Country
US
Launch date
2025-09-05
Launch site
AFETR
Launch vehicle
Mass (kg)
RCS (m²)

Purposes: comms

External: N2YO · Heavens-Above · Gunter

§ Orbital elements

Epoch: 2026-09-20T01:23:40.347168Z

Period
93.85 min
Inclination
53.1588°
Eccentricity
0.0001442
Mean motion
15.34393744 rev/d
Perigee alt
461.7 km
Apogee alt
463.7 km
Semi-major
6,840.9 km
B*
1.2411e-4
RAAN
83.5751°
Arg perigee
70.0017°
Mean anomaly
290.1141°
Rev number
5,844

§ Raw data

STARLINK-351401 65501U 25198K   26263.05810587  .00003818  00000+0  12411-3 0  99962 65501  53.1588  83.5751 0001442  70.0017 290.1141 15.34393744 58446

JSON: /api/v1/satellites/65501 · /tle

For live sub-satellite position, see the globe view (requires WebGL).

§ Visibility from observer

Set your observer location to see the next 7 days of passes ≥ 10°. The values pass through the URL so the page stays shareable.

No JS? Fill the form by hand. The geolocation button needs JavaScript.